IRNSS-1I (43286 NORAD) Tracking and Keplerian Element Data

This shows tracking and keplerian element data for the satellite.

Feedback or suggestion? Click here.




ElementValue
Catalog43286
NameIRNSS-1I
Epoch Orbit233
Epoch Day323.01724002
Epoch Year2018
RAAN119.2578
Inclination28.8879
Eccentricity0.0021214
Argument of Perigee176.9002
Mean Anonmoly183.1154
Mean Motion1.00269695
Decay Rate1.5E-06
L11 43286U 18035A 18323.01724002 .00000150 00000-0 00000+0 0 9998
L22 43286 28.8879 119.2578 0021214 176.9002 183.1154 1.00269695 2334

Live tracking and technical data element details for IRNSS-1I (NORAD 43286). IRNSS-1I can be tracked NOW for your location showing map with azimuth and elevation plus other details from your city location.

Track the satellite on the map from your city or location and see movement details for azimuth, elevation, latitude, longitude, range, height, and movement on the map or in text.







IsCatalogInMostPopularTable: catalog: 43286, numindb: 191
Update: records affected: 1



GetName: 43286 IRNSS-1I

Hit Count: updated at: Tue, 20 Nov 2018 08:08:14 GMT